Regional Weather Roundup
Issued by NWS

Home | Current Version | Previous Version | Text Only | Print | Product List | Glossary On
Versions: 1 2 3 4 5 6 7 8 9 10 11 12 13 14 15 16 17 18 19 20 21 22 23 24 25 26 27 28 29 30 31 32 33 34 35 36 37 38 39 40 41 42 43 44 45 46 47 48 49 50
000
ASUS45 KTFX 231919
RWRMT
MONTANA HOURLY WEATHER ROUNDUP
NATIONAL WEATHER SERVICE GREAT FALLS MT
119 PM MDT THU OCT 23 2014

NOTE: "FAIR" INDICATES FEW OR NO CLOUDS BELOW 12000 FEET WITH NO
SIGNIFICANT WEATHER AND/OR OBSTRUCTIONS TO VISIBILITY.

* THESE STATIONS ARE NOT UNDER NWS QUALITY CONTROL. THEY DO NOT
   REPORT WEATHER SUCH AS PRECIPITATION OR FOG.

MTZ001>007-043-232000-
WEST OF THE DIVIDE
CITY           SKY/WX    TMP DP  RH WIND       PRES   REMARKS
KALISPELL      RAIN      50  48  93 W3        29.84R
MISSOULA       CLOUDY    59  43  56 SE14      29.89S
BUTTE          CLOUDY    54  34  47 S5        30.01S
MULLAN PASS    LGT RAIN  39  39 100 S10G23    29.85F VSB 1/2  WCI  32
* ESSEX        N/A       46  45  96 NE3        N/A
* LINCOLN      N/A       48  42  80 NW2        N/A
* POLSON       N/A       51  49  93 S1         N/A
* RONAN APT    CLOUDY    61  45  56 SE9        N/A
* SEELEY LAKE  N/A       51  43  74 SW2        N/A
* THOMP F APT  CLOUDY    47  24  40 S9G15      N/A
$$

MTZ008-052>055-232000-
SOUTHWEST MONTANA
CITY           SKY/WX    TMP DP  RH WIND       PRES   REMARKS
BOZEMAN        PTSUNNY   61  34  36 SW9       29.98F
DILLON         PTSUNNY   59  34  39 S12       30.01F
W YELLOWSTONE  CLOUDY    48  27  44 S16G23    30.14S
* THREE FORKS  PTSUNNY   64  39  40 SW13       N/A
* BOULDER HILL N/A       54  31  42 SW22G27    N/A
* MONIDA PASS  N/A       46  25  44 E15G26     N/A
* RAYNOLDS PAS N/A       49  27  43 S9G17      N/A
* WHITEHALL    N/A       58  35  42 SW15G27    N/A
* WISE RIVER   N/A       52  37  57 W11G22     N/A
$$

MTZ009>010-012-014-046-048-049-054-232000-
EAST SLOPES AND CENTRAL MONTANA
CITY           SKY/WX    TMP DP  RH WIND       PRES   REMARKS
CUT BANK       PTSUNNY   61  39  44 W12       29.76F
GREAT FALLS    CLOUDY    57  37  47 SW26G33   29.81F
HELENA         CLOUDY    64  36  35 SW9       29.89F
MALMSTROM AFB  CLOUDY    59  39  48 SW23G30   29.82F
* CONRAD       PTSUNNY   59  41  51 S24G35     N/A
* DEARBORN     N/A       61  36  39 S17G29     N/A
* EAST GLACIER N/A       46  41  83 W28G34     N/A
* MONARCH      N/A       54  25  33 S16G24     N/A
* PENDROY      N/A       58  38  47 W7G12      N/A
* ROGERS PASS  N/A       47  37  68 SE15G22    N/A
* SAINT MARY   N/A       44  38  80 S10G19     N/A
* SWEET GRASS  N/A       58  36  44 SW20G34    N/A
* WHITE SULPH  N/A       59  35  41 SW16G29    N/A
$$

MTZ011-013-016-021-035-040-045-047-050-051-232000-
NORTH CENTRAL MONTANA
CITY           SKY/WX    TMP DP  RH WIND       PRES   REMARKS
HAVRE          CLOUDY    61  39  44 SW12      29.76F
LEWISTOWN      CLOUDY    64  34  33 W17       29.86S
* CHINOOK      CLOUDY    63  37  38 SW20G25   29.75S
* FORT BENTON  CLOUDY    63  37  38 SW13G21   29.79F
* CHESTER      N/A       59  39  48 SW13G23    N/A
* DENTON       N/A       62  35  37 W2         N/A
* GEYSER       N/A       60  32  35 SW30G37    N/A
* JUDITH GAP   N/A       58  34  41 SW24G39    N/A
* LOMA         N/A       61  38  43 SW12       N/A
$$

MTZ017>020-022>027-061-062-232000-
NORTHEAST MONTANA
CITY           SKY/WX    TMP DP  RH WIND       PRES   REMARKS
GLASGOW        PTSUNNY   64  37  37 SW6       29.78S
GLENDIVE       CLOUDY    57  32  39 S9        29.86S
JORDAN         PTCLDY    70  32  25 W18G24    29.80F
SIDNEY         CLOUDY    59  34  39 S8G16     29.82S
WOLF POINT     PTSUNNY   61  37  41 W6        29.80S
* BEAVER HILL  N/A       64  30  28 SW19       N/A
* CIRCLE       N/A       67  37  33 SW14       N/A
* LINDSAY DVD  N/A       66  31  27 W17G25     N/A
* NAVAJO       N/A       61  35  38 SW16       N/A
$$

MTZ028>042-056>058-232000-
SOUTHCENTRAL AND SOUTHEAST MONTANA
CITY           SKY/WX    TMP DP  RH WIND       PRES   REMARKS
BAKER          PTSUNNY   66  27  23 W13       29.88F
BILLINGS       PTSUNNY   68  28  22 SW12      29.90S
LIVINGSTON     PTSUNNY   66  27  23 SW36G44   29.91F
MILES CITY     PTSUNNY   63  32  31 S6        29.86F
* LAUREL APT   PTSUNNY   66  25  21 S8         N/A
* ROUNDUP APT  PTSUNNY   64  34  33 SW14       N/A
* ALZADA       N/A       66  25  21 S5         N/A
* HYSHAM       N/A       62  30  30 W8G13      N/A
* LAME DEER    N/A       64  28  26 W10G17     N/A
* REED POINT   N/A       65  35  33 N/A        N/A
* ROSCOE HILL  N/A       62  23  22 SW11G26    N/A
$$

REGIONAL REPORTS...DAKOTAS
CITY           SKY/WX    TMP DP  RH WIND       PRES   REMARKS
WILLISTON      PTSUNNY   59  34  39 SW12      29.78F
DICKINSON      PTSUNNY   68  27  21 SW14      29.82F
BEACH          N/A       66  27  23 W15G28    29.85F
CROSBY         SUNNY     61  36  39 SW14G20   29.76F
TIOGA          SUNNY     59  32  36 SW9       29.81F
BISMARCK       SUNNY     72  34  25 SW10      29.85F
GRAND FORKS    SUNNY     70  36  29 SW12      29.82F
FARGO          SUNNY     66  45  47 S12       29.87F
BUFFALO SD     PTCLDY    68  27  21 SW12      29.84F
RAPID CITY     PTSUNNY   64  36  35 SE6       29.91F
$$

REGIONAL REPORTS...WYOMING/IDAHO/WASHINGTON
CITY           SKY/WX    TMP DP  RH WIND       PRES   REMARKS
GILLETTE       CLOUDY    66  25  21 NW7       29.95S
SHERIDAN       PTCLDY    72  28  19 N7        29.91F
CODY           PTCLDY    68  25  20 W16G23    29.96F
YELLOWSTONE LA PTCLDY    50  25  38 SW14G23   30.19R
SALMON         CLOUDY    63  37  38 S15G21    29.96F
MULLAN PASS    LGT RAIN  39  39 100 S10G23    29.85S VSB 1/2  WCI  32
SAND POINT     LGT RAIN  50  50 100 SW3       29.78F
SPOKANE        LGT RAIN  54  52  93 S8        29.79F
$$

REGIONAL REPORTS...ALBERTA
CITY           SKY/WX    TMP DP  RH WIND       PRES   REMARKS
CALGARY        SUNNY     61  23  23 NW10G21   29.55S
LETHBRIDGE     PTCLDY    61  37  41 SW26G36   29.67S
MEDICINE HAT   PTSUNNY   61  39  44 SW21G28   29.67R
WATERTON GATE  N/A       46  41  83 SW17G25    N/A
CARDSTON       N/A       57  39  51 SW14G22    N/A
MILK RIVER     N/A       61  37  41 SW29G35    N/A
$$

REGIONAL REPORTS...SASKATCHEWAN
CITY           SKY/WX    TMP DP  RH WIND       PRES   REMARKS
SWIFT CURRENT  SUNNY     57  41  55 SW17G24   29.65F
MOOSE JAW      CLOUDY    55  41  59 SW12G18   29.67F
REGINA         PTSUNNY   55  45  69 S8        29.69F
VAL MARIE      N/A       63  39  41 SW14G25    N/A
ASSINIBOIA     N/A       61  36  39 SW17       N/A

$$




USA.gov is the U.S. government's official web portal to all federal, state and local government web resources and services.